GEFSMW_500_meanwind_060.txt.gz
Wind_Speed
18 19 19 21 22 24 25 26 28 30 32 34 35 36 37 38 39 40 42 44 46 49 51 52 53 55 56 57 57 58 58 59 61 62 61 61 61 60 60 61 61 60 60
19 20 21 22 23 25 26 27 29 30 32 34 35 36 37 38 39 41 42 44 47 49 51 53 55 57 59 59 60 61 62 62 64 65 65 64 62 61 62 62 61 61 61
21 22 23 25 26 27 28 29 30 32 33 34 36 37 38 39 41 43 45 46 48 50 52 54 56 58 60 62 63 64 65 65 66 67 68 68 66 65 63 62 61 61 61
23 24 26 28 29 30 31 31 32 33 34 35 37 38 39 41 43 45 46 48 50 52 54 56 58 60 62 63 65 66 67 68 68 68 69 70 70 70 67 63 63 62 61
25 27 28 29 30 31 32 32 33 34 35 36 38 39 41 42 44 46 48 51 53 55 57 59 60 62 63 64 66 68 69 70 70 70 70 71 71 71 71 68 65 64 63
25 27 28 29 30 31 32 33 34 34 36 37 38 40 42 43 45 47 49 51 53 56 58 60 62 64 65 66 68 69 71 71 71 72 72 72 72 71 72 71 69 67 65
25 26 28 29 29 30 31 31 32 33 34 35 36 38 40 41 43 45 47 49 51 54 56 59 60 62 64 66 68 69 70 71 72 73 74 74 73 73 72 72 71 70 68
25 25 26 27 28 28 29 29 30 31 33 34 36 37 39 40 42 44 46 48 50 52 55 57 59 61 62 64 66 67 69 71 72 73 74 74 74 74 73 73 73 72 70
23 24 26 27 27 28 29 30 31 33 35 37 38 40 42 44 45 47 49 51 53 54 56 58 59 61 63 64 65 66 67 69 70 71 73 73 73 74 73 73 73 72 70
23 25 26 27 28 29 31 32 34 36 38 40 42 44 46 48 50 52 54 56 57 58 59 60 61 62 63 64 66 67 67 68 69 69 70 70 71 73 73 72 72 72 71
25 26 27 29 31 33 35 36 38 40 42 44 47 49 51 53 55 57 59 60 62 63 64 64 65 65 66 66 67 67 67 68 68 68 69 69 70 71 71 71 71 71 70
27 29 30 32 35 37 39 41 43 45 47 50 52 54 57 59 60 62 63 65 66 66 67 68 68 68 68 69 69 69 69 69 68 69 69 69 70 69 69 69 69 69 68
30 32 34 37 39 41 43 46 48 51 53 56 58 60 62 64 65 67 68 69 69 70 71 71 71 71 71 71 71 71 70 70 69 69 69 68 68 67 67 67 67 67 67
34 37 39 41 44 46 49 51 54 56 59 61 64 66 68 69 70 71 72 73 74 74 74 74 73 73 72 72 72 72 71 70 70 69 68 67 66 66 66 66 65 65 65
39 41 44 46 48 51 54 57 59 61 64 66 69 70 72 74 75 76 77 77 78 77 76 75 74 74 73 73 73 72 71 70 69 68 67 66 65 65 65 64 63 63 63
43 46 48 51 54 57 59 62 64 67 70 72 74 75 77 78 79 79 80 79 78 77 76 75 74 73 72 72 71 70 69 67 66 65 64 63 63 63 63 62 61 61 61
48 50 53 56 59 62 65 67 70 72 74 77 78 80 81 81 82 82 80 79 78 76 75 73 72 70 69 68 67 67 65 64 62 61 60 60 59 60 59 59 60 60 60
52 56 59 61 64 67 70 72 74 76 78 80 82 83 83 83 82 81 79 77 75 73 71 69 68 66 65 64 63 61 60 58 57 57 56 55 55 56 57 57 58 58 59
57 60 63 66 68 71 73 75 77 79 82 83 84 84 83 82 80 78 76 74 72 69 67 66 64 63 61 60 58 57 55 53 52 52 51 52 52 53 54 54 55 55 56
61 64 67 70 72 74 77 79 81 83 84 84 84 83 81 80 77 75 72 69 67 65 63 61 59 58 56 54 53 52 50 49 48 48 48 49 50 51 52 52 52 52 53
65 68 71 73 75 78 80 82 83 85 85 84 82 80 77 75 73 69 66 64 62 60 57 55 54 53 51 49 49 48 47 46 45 45 46 46 47 48 49 50 50 51 52
69 72 74 76 78 80 82 84 84 84 83 81 78 75 72 69 66 63 60 59 57 55 53 51 49 48 47 46 45 44 43 43 42 42 43 44 45 46 47 47 48 49 50
72 74 76 78 79 81 83 84 83 82 79 76 72 68 65 62 60 59 56 54 53 52 49 47 45 43 43 43 42 41 41 42 41 41 42 43 43 44 44 45 45 46 46
75 77 79 80 80 81 82 81 80 77 74 70 66 62 60 57 55 54 53 51 50 48 46 44 42 41 40 40 40 40 41 41 41 41 41 42 42 42 42 43 43 43 42
77 78 80 81 81 81 79 77 74 71 67 63 60 57 56 54 52 50 49 48 46 46 44 42 41 39 38 38 39 39 39 39 40 41 40 41 41 41 41 42 41 40 40
78 79 80 79 79 77 74 70 67 65 62 59 56 54 52 51 49 47 45 44 44 44 43 41 40 39 39 38 39 39 39 39 38 38 38 38 38 38 38 38 38 38 38

GEFSMW_500_meanwind_066.txt.gz
Wind_Speed
23 24 25 26 27 27 28 29 29 29 30 31 32 32 33 35 36 38 39 41 42 44 45 45 47 48 50 51 53 54 56 56 58 60 60 61 62 62 62 62 63 63 64
25 26 27 28 29 29 30 31 31 32 32 32 33 33 34 35 36 38 39 40 42 43 44 46 47 49 50 52 53 55 57 57 59 61 62 62 62 62 63 64 65 65 66
25 27 28 30 31 31 32 33 33 33 34 34 34 34 35 35 36 37 38 40 41 43 44 46 48 49 51 52 54 56 58 59 61 62 64 64 63 63 64 65 66 66 67
27 29 30 32 32 33 33 33 33 33 33 33 33 34 34 35 36 37 38 39 40 41 43 45 47 49 51 53 55 57 59 61 62 64 66 67 67 67 65 64 65 67 68
30 31 32 33 33 33 32 32 32 31 31 31 31 32 32 33 34 35 36 38 40 42 44 46 47 49 51 52 55 57 59 61 63 65 67 68 70 71 71 68 67 68 69
31 32 32 32 32 32 32 30 29 29 29 29 29 30 31 33 34 36 38 40 42 44 46 48 50 52 54 55 57 59 61 63 65 67 69 70 71 72 74 73 71 71 71
32 32 32 32 32 31 30 28 28 28 29 29 31 32 33 35 37 39 41 43 45 48 50 52 54 56 58 60 62 64 65 67 68 70 71 73 73 75 76 77 75 75 73
31 32 32 32 31 30 29 29 29 29 30 31 33 35 37 39 41 43 45 48 50 52 55 57 59 62 64 66 67 69 70 71 73 74 75 76 76 77 78 79 80 79 77
31 32 32 31 31 30 30 30 31 32 33 35 37 39 41 44 46 49 51 54 56 58 60 63 65 67 69 71 73 74 75 76 77 78 79 79 80 81 81 82 82 83 81
31 32 32 32 31 32 32 33 34 36 38 40 42 44 47 49 52 54 57 60 62 65 67 69 71 73 75 77 78 79 80 80 81 82 82 83 83 84 84 84 84 85 84
32 33 33 33 33 34 35 36 38 40 42 45 47 49 52 55 57 60 63 66 68 71 73 75 77 79 80 82 83 84 84 85 85 86 86 86 86 87 86 86 86 85 85
34 34 34 35 35 37 38 40 42 44 47 50 52 55 58 60 63 66 69 72 74 76 79 81 82 84 85 86 87 88 88 88 88 87 88 87 87 87 86 85 84 83 83
36 36 36 37 38 40 41 44 46 49 52 55 58 61 63 66 69 72 74 77 79 81 83 85 87 88 90 90 91 91 91 90 88 87 86 84 84 82 81 81 80 79 78
37 37 38 40 42 43 46 48 51 54 57 60 63 66 69 72 74 77 79 81 83 85 87 89 91 92 92 92 91 91 89 87 85 83 81 79 78 76 76 75 74 73 72
38 39 41 43 45 47 50 53 56 59 62 65 68 71 74 76 79 81 83 85 87 89 91 92 93 92 91 90 88 86 83 80 77 75 73 71 71 70 69 68 67 67 66
41 42 44 46 49 52 54 57 60 64 67 70 72 75 78 80 82 84 86 88 90 92 92 92 91 89 86 83 80 77 74 71 68 65 64 63 62 62 62 61 61 60 59
44 45 47 50 53 56 58 61 65 68 71 74 77 79 81 83 85 87 89 91 92 92 91 88 85 81 76 73 70 67 65 62 60 58 57 57 56 56 55 55 54 54 53
46 48 51 53 56 59 63 66 69 72 75 78 80 82 84 86 88 89 91 91 91 89 86 81 77 72 67 65 62 60 58 56 54 53 52 51 49 49 49 49 48 48 48
49 51 54 57 60 63 66 69 72 75 78 80 82 84 86 88 89 90 90 89 87 83 78 73 68 64 60 58 57 55 52 50 48 47 47 46 44 44 44 43 43 43 43
52 54 57 60 64 67 70 73 76 78 80 82 84 86 88 90 90 89 87 84 80 75 70 65 62 59 56 54 53 51 49 47 45 43 43 42 41 41 40 40 39 39 40
55 58 61 64 67 71 73 76 78 80 82 84 86 87 89 89 88 86 82 77 72 68 63 60 57 55 53 51 49 48 47 45 42 40 39 39 39 39 38 38 38 38 38
58 61 64 67 70 73 76 78 80 82 83 85 87 87 87 86 83 79 74 69 65 61 58 55 53 51 49 48 47 45 44 43 41 39 38 38 38 38 37 37 37 37 37
61 64 67 70 73 76 78 80 82 83 85 86 87 86 85 81 77 72 67 63 60 57 55 53 50 47 45 45 44 43 42 41 40 39 38 37 37 36 36 35 35 36 36
65 68 70 73 75 77 79 82 83 85 86 86 86 84 81 75 70 65 62 59 56 54 52 50 48 45 43 42 40 40 40 39 39 38 37 36 35 34 34 34 34 35 35
68 70 73 75 77 79 81 82 84 86 86 85 83 79 74 69 63 59 56 55 53 52 51 49 47 44 41 39 39 38 38 37 36 35 34 33 32 32 33 33 33 34 34
71 73 75 77 78 80 82 83 85 86 86 83 78 73 68 63 58 55 51 50 50 49 48 47 46 43 41 39 38 38 37 36 35 34 32 31 31 31 31 32 33 33 34

GEFSMW_500_meanwind_072.txt.gz
Wind_Speed
19 19 20 21 22 23 24 25 26 27 28 29 30 31 31 32 33 33 34 34 34 35 35 36 37 38 38 40 41 42 43 44 46 48 49 49 51 52 53 56 57 58 60
20 21 22 23 24 26 27 28 29 29 30 31 31 32 32 32 32 32 32 33 33 34 34 35 36 37 38 39 41 42 44 45 48 50 52 52 53 54 55 57 59 60 62
21 22 24 25 26 28 29 30 30 30 31 31 31 31 30 30 30 30 31 31 32 33 34 35 36 37 39 41 43 46 48 50 52 54 56 58 58 58 57 58 60 62 64
23 24 26 27 28 30 30 31 30 30 31 31 30 29 29 29 29 29 30 30 31 33 34 36 38 40 42 45 47 49 52 54 55 58 60 63 65 66 65 64 65 66 67
25 26 28 29 30 31 31 31 31 30 30 30 29 28 28 28 29 30 31 32 34 36 38 40 42 44 46 49 52 54 57 59 61 63 65 67 70 72 74 73 73 73 73
26 28 29 30 31 32 31 31 30 30 29 29 28 29 29 30 31 32 34 35 37 40 42 44 47 49 52 54 57 59 62 65 67 69 71 74 75 77 79 81 81 81 80
28 29 30 31 32 31 31 30 30 29 29 29 29 30 31 32 34 36 37 40 42 45 47 50 52 55 58 60 63 65 68 70 73 75 77 79 81 82 84 86 87 87 86
29 31 31 32 31 31 31 30 30 29 30 31 32 33 34 36 37 40 42 44 47 50 52 55 58 60 63 66 68 71 73 76 78 80 82 84 85 87 89 90 92 93 92
31 32 32 32 32 32 32 31 31 31 32 34 35 36 37 39 42 44 46 49 52 54 57 60 62 65 68 71 74 76 78 80 82 84 86 88 89 91 92 94 95 96 97
32 33 34 34 34 34 33 33 33 33 35 36 37 39 41 43 46 48 51 54 56 59 62 65 67 70 73 76 78 80 82 84 86 88 89 91 92 93 94 95 95 95 96
34 35 36 36 35 35 35 35 35 36 37 39 41 43 45 48 50 53 56 58 61 64 67 69 72 75 78 80 82 84 86 88 89 91 92 93 93 93 93 92 90 89 88
37 37 38 37 36 36 37 37 37 38 39 41 44 46 49 51 54 57 60 63 66 69 72 74 77 80 82 84 86 88 89 91 92 92 93 92 91 89 86 84 82 80 79
38 39 39 38 38 38 38 39 39 41 43 45 48 50 53 55 58 61 64 67 70 73 76 79 81 83 85 87 89 91 91 92 93 92 91 87 84 80 77 75 73 71 69
40 40 40 40 39 40 40 41 42 44 46 49 51 54 56 59 62 65 68 71 74 77 80 82 84 86 88 90 91 92 93 92 90 87 83 78 74 70 68 66 64 63 63
41 41 41 41 41 41 42 44 45 47 49 52 54 57 60 63 66 69 72 75 78 80 83 85 87 89 90 91 92 92 90 87 82 76 71 67 64 62 61 59 58 58 57
42 42 42 42 43 43 45 46 48 50 53 55 57 60 63 66 69 72 75 78 80 83 85 87 89 91 91 91 90 88 84 78 72 66 62 59 57 56 55 54 54 53 53
42 43 43 44 44 45 46 48 51 53 55 58 61 64 67 70 73 76 78 81 83 85 87 89 90 90 89 88 85 79 74 68 63 59 56 54 53 52 51 50 50 49 49
43 43 44 45 46 47 49 51 53 55 58 61 64 67 70 73 76 78 81 83 85 87 89 90 90 88 85 82 76 70 65 60 56 54 52 50 49 48 48 47 46 45 45
43 44 44 46 47 49 51 53 55 58 61 64 67 70 73 76 78 80 83 85 87 88 89 89 87 84 79 73 67 63 58 54 51 50 49 48 46 46 46 45 44 42 41
43 44 45 47 49 51 53 55 58 61 64 67 70 73 76 78 80 83 85 86 88 88 88 86 83 78 71 65 61 58 54 51 49 47 46 45 44 43 43 43 42 41 40
44 45 47 49 51 53 55 58 60 64 67 69 72 75 77 80 82 84 86 87 88 87 85 82 77 70 64 60 56 54 51 49 47 45 43 42 42 41 41 41 40 40 39
45 46 48 50 53 55 58 60 63 67 69 72 74 76 79 81 83 85 85 86 86 84 80 75 68 62 58 55 52 50 48 47 46 43 41 40 40 40 39 39 39 38 37
46 48 50 52 55 58 61 64 66 69 71 73 76 78 80 82 83 84 85 84 82 79 73 68 62 56 53 50 47 46 45 45 43 41 40 40 39 38 37 37 37 36 35
48 50 52 54 57 60 63 66 69 71 73 75 78 80 81 82 83 83 83 81 77 72 67 62 57 51 48 45 44 43 42 41 40 40 39 39 38 37 36 35 35 35 34
50 52 55 58 60 63 65 68 71 73 76 78 80 81 82 82 82 81 79 76 70 66 62 57 52 48 44 42 42 41 39 39 38 37 36 35 35 34 34 34 33 33 33
53 55 58 61 63 66 68 70 73 76 78 80 81 82 82 82 81 78 74 68 63 58 55 52 49 46 44 41 40 39 38 37 36 35 34 33 33 33 32 32 32 32 31

GEFSMW_500_meanwind_078.txt.gz
Wind_Speed
21 20 20 20 20 21 21 22 24 25 27 28 29 30 30 31 31 32 33 33 33 33 33 33 34 34 35 36 36 37 37 38 39 40 40 40 42 43 45 46 47 49 50
20 20 20 20 21 21 23 24 25 27 28 29 30 30 31 31 32 32 32 32 32 32 32 32 33 33 34 35 36 37 37 39 41 43 44 43 43 46 48 49 51 52 54
20 19 20 20 21 22 24 25 27 28 29 30 31 31 31 32 32 32 32 31 31 31 31 32 33 34 35 36 38 39 40 42 44 47 49 50 50 51 51 54 56 58 59
20 20 21 21 22 24 25 27 28 29 31 31 32 32 32 32 32 32 31 31 31 32 33 34 35 36 37 39 41 43 45 47 49 51 54 56 58 60 59 57 60 62 65
20 21 22 23 24 25 27 28 29 31 32 32 33 33 33 33 33 32 33 33 34 35 36 37 38 40 41 43 46 48 50 52 54 56 58 60 63 66 68 67 66 67 69
22 22 23 24 25 26 28 29 31 32 33 33 34 34 35 34 34 34 35 36 37 38 39 40 42 44 46 48 50 52 54 57 59 61 63 65 67 69 73 75 75 75 74
23 24 24 26 27 28 29 31 32 33 34 35 35 36 36 36 37 37 38 39 40 41 42 44 46 48 50 53 55 57 59 61 63 65 68 70 72 74 77 79 80 81 80
25 26 27 28 29 30 31 32 34 35 36 36 37 37 37 38 39 40 40 41 43 44 46 48 50 52 54 56 58 60 62 65 67 69 71 73 75 78 80 83 85 87 86
27 28 29 30 31 32 33 35 36 37 38 38 38 39 39 40 40 41 43 44 46 47 49 51 53 55 57 60 62 64 66 68 70 73 75 77 79 81 84 86 88 91 92
29 30 31 32 33 35 37 38 39 39 40 40 40 40 41 42 43 43 45 46 48 50 52 54 56 58 61 63 65 67 70 72 74 76 78 80 83 85 87 89 91 93 96
30 32 33 35 36 38 39 40 41 41 41 41 42 42 43 44 45 46 47 49 50 52 55 57 59 62 64 66 68 71 73 75 77 79 82 84 86 88 89 91 92 92 92
32 34 36 38 39 40 41 42 43 43 43 43 44 44 45 46 47 48 50 51 53 55 57 60 62 64 67 69 72 74 76 78 81 83 85 87 89 90 90 90 89 88 85
35 36 38 40 41 42 43 43 44 44 44 45 45 46 47 48 49 50 52 54 56 58 60 62 65 67 70 72 75 77 79 82 84 86 87 89 90 89 88 86 84 80 77
37 39 40 41 43 44 44 44 45 45 46 46 47 47 48 49 51 53 54 56 58 60 62 65 68 71 73 75 78 80 82 84 86 87 88 88 88 86 83 79 75 71 68
39 41 42 43 44 45 45 45 46 47 47 48 49 49 50 51 53 55 57 59 61 63 65 68 71 74 76 78 81 83 84 85 86 87 86 85 82 79 76 71 67 63 60
41 42 44 45 45 45 46 46 47 48 48 49 50 51 52 54 56 58 60 61 63 66 69 72 74 76 78 81 83 85 86 87 87 85 83 80 76 71 67 63 60 57 55
43 44 44 45 45 45 46 47 48 49 50 51 52 53 55 56 58 60 62 64 66 69 72 74 76 78 80 82 84 85 86 86 84 82 78 74 68 64 60 56 53 51 50
44 44 44 45 45 46 47 48 49 50 51 52 53 55 57 58 60 62 64 67 70 72 75 77 78 80 82 83 84 85 85 83 80 77 72 66 60 56 53 50 48 47 46
44 44 45 45 46 47 47 48 49 50 52 53 55 57 58 60 62 65 67 70 73 75 77 79 80 82 82 83 84 83 82 79 74 69 63 59 54 51 49 47 45 43 42
44 45 45 46 47 47 48 49 50 51 53 55 56 58 60 63 66 68 70 73 75 77 79 80 82 83 83 82 82 81 79 74 68 61 55 52 49 47 45 45 43 41 40
45 45 46 47 48 48 49 49 51 52 54 56 58 60 63 66 68 71 73 75 77 79 80 81 82 83 82 80 78 76 72 67 60 54 49 46 45 43 42 42 41 41 39
46 47 47 48 48 49 50 51 53 55 56 58 60 63 66 68 71 73 75 77 79 81 82 83 82 81 79 77 73 69 64 59 54 49 46 44 42 41 40 40 39 38 37
47 47 48 48 49 50 51 53 55 56 58 60 63 65 68 70 73 75 78 79 81 83 83 83 82 79 76 72 67 62 56 52 49 46 43 42 40 39 38 38 37 36 36
47 47 48 49 50 51 53 55 56 58 61 63 66 68 71 73 75 77 80 81 83 83 83 82 80 76 71 66 60 54 49 46 44 42 40 39 38 38 37 36 35 35 35
47 48 49 50 51 52 54 56 59 61 63 66 68 71 73 76 78 79 81 82 83 83 82 80 77 72 66 59 53 49 45 42 41 39 37 37 36 35 35 35 34 34 34
48 49 50 51 52 54 56 59 61 64 66 69 71 74 76 78 80 81 82 81 81 79 78 75 71 66 60 53 47 44 41 40 39 38 37 36 35 34 33 33 33 32 32

GEFSMW_500_meanwind_084.txt.gz
Wind_Speed
25 25 24 24 24 24 24 24 25 25 26 27 28 28 30 31 32 32 32 33 33 34 34 35 36 36 36 36 36 35 36 36 37 37 36 36 37 39 39 41 43 44 46
26 25 25 24 24 25 25 25 25 26 27 27 28 29 30 31 32 33 33 34 34 35 35 36 36 36 36 36 36 37 37 39 40 40 39 39 40 42 43 45 47 49 50
26 25 25 24 24 25 25 26 26 27 27 28 29 30 31 32 33 34 34 35 35 36 36 36 37 37 37 38 39 40 40 41 43 44 45 45 45 45 46 48 50 53 55
26 25 25 25 25 25 26 26 27 28 29 30 30 31 32 33 34 35 35 36 37 38 38 38 38 39 40 41 42 43 44 44 46 48 50 52 53 53 52 51 53 55 57
25 25 24 25 25 25 26 27 28 29 30 31 32 33 34 35 36 37 38 38 39 39 40 41 41 41 42 43 44 46 47 48 49 51 53 55 57 59 61 60 58 59 61
25 24 24 24 25 26 27 28 29 30 31 33 34 35 36 37 38 39 39 40 40 41 41 42 43 44 44 46 47 48 50 51 53 55 56 58 60 62 65 66 66 65 65
24 24 24 25 26 27 28 29 30 32 33 35 36 37 38 40 41 41 41 41 42 42 43 44 45 46 47 48 49 51 52 54 56 57 59 61 63 65 67 69 70 71 70
24 24 25 26 27 28 29 31 32 33 35 37 38 40 41 42 42 43 43 44 44 44 45 46 47 48 49 50 52 53 55 57 58 60 62 63 65 67 69 72 74 75 74
24 25 26 27 28 29 30 32 33 35 37 38 40 41 43 44 45 45 45 45 46 46 47 47 48 50 51 53 54 55 57 59 61 62 64 65 67 69 72 74 77 79 79
25 25 27 28 29 31 32 34 35 37 39 40 42 43 45 46 46 47 47 47 48 48 49 50 51 52 53 54 56 58 60 61 62 64 65 67 69 72 73 76 78 80 83
25 26 28 29 31 32 34 35 37 39 41 43 44 46 47 47 48 48 48 49 49 50 51 52 53 54 55 57 58 60 61 62 64 66 68 70 72 73 75 78 80 82 85
27 28 29 30 32 33 35 37 39 41 43 45 46 47 48 49 49 49 50 51 51 52 53 54 55 56 58 59 60 61 63 64 66 68 70 72 74 75 78 80 82 84 86
28 29 30 31 33 35 38 40 42 44 45 46 47 48 49 50 50 51 52 53 53 54 55 56 57 58 59 60 62 63 65 66 69 71 72 74 76 78 80 82 84 85 87
30 31 32 34 36 38 40 42 44 45 47 48 49 49 50 51 52 53 54 55 55 56 57 58 59 59 61 62 64 66 67 69 71 73 74 76 79 80 82 83 85 86 86
33 34 35 37 39 40 42 43 45 46 47 48 49 50 52 53 54 55 56 56 57 58 59 59 60 61 63 65 67 68 70 72 73 75 77 79 80 82 84 85 85 84 83
36 37 39 40 41 42 43 45 46 47 48 49 50 51 52 54 55 56 57 57 58 58 59 60 62 63 65 68 70 72 73 74 76 78 79 81 82 83 84 84 83 81 78
39 40 41 42 44 44 45 46 47 48 49 50 51 52 53 54 55 56 57 58 58 59 60 62 64 66 68 71 73 74 75 77 78 80 82 83 83 83 82 81 79 75 71
41 42 43 44 44 45 46 46 47 48 49 51 52 53 54 55 56 57 57 58 59 61 62 64 66 69 71 74 75 76 78 79 81 82 83 83 82 82 80 77 73 68 63
42 43 44 44 45 45 46 47 48 49 51 52 52 53 54 55 56 57 58 59 60 62 64 67 69 71 73 76 78 80 81 82 82 83 83 82 81 78 76 72 66 60 55
43 44 44 45 45 46 47 48 49 50 51 51 52 53 54 55 56 57 59 61 63 65 67 69 72 75 77 79 81 83 84 84 83 82 80 79 77 73 68 63 58 52 48
44 44 44 44 45 46 47 48 49 50 50 50 51 53 54 56 57 59 61 63 66 68 70 72 75 78 80 82 84 86 86 85 83 80 77 73 69 64 59 55 50 46 43
42 43 43 44 45 46 47 48 49 49 50 51 52 54 56 57 59 61 64 66 69 71 74 76 78 80 83 85 86 86 85 84 81 76 71 66 60 56 51 47 44 42 40
42 43 44 44 45 46 47 48 48 49 50 52 53 55 57 59 62 64 67 69 72 76 78 81 82 83 84 85 86 84 82 79 75 69 64 58 52 48 44 42 41 39 38
42 43 44 45 45 46 47 48 50 51 52 53 55 57 59 62 64 67 70 74 77 80 82 84 85 85 85 84 82 80 76 72 67 61 55 50 45 42 40 39 38 38 37
43 44 44 45 46 46 48 49 50 51 53 55 57 60 62 65 68 71 74 78 81 84 85 86 87 87 84 81 78 75 70 65 59 53 47 42 39 37 37 37 36 36 35
43 44 44 45 46 47 48 50 51 53 55 58 60 63 66 69 72 75 78 80 83 84 86 86 86 84 81 77 72 68 62 57 51 46 41 38 36 35 34 34 34 34 32

GEFSMW_500_meanwind_090.txt.gz
Wind_Speed
31 31 31 31 31 31 31 31 31 31 31 31 31 31 31 31 32 32 33 34 35 35 36 37 38 38 39 39 39 40 41 41 40 39 40 40 41 42 43 44 45 46 47
33 32 32 31 32 31 31 31 32 32 32 32 33 33 33 32 33 34 35 36 37 37 38 39 39 40 41 41 41 42 42 43 43 42 41 41 42 44 45 46 47 48 50
33 32 32 32 32 32 32 32 32 32 32 33 34 34 34 34 35 36 37 38 39 40 40 41 41 42 43 43 43 43 44 44 45 45 45 45 44 45 45 47 49 50 52
33 33 33 33 32 32 32 32 32 33 33 34 34 35 35 36 37 38 39 40 41 41 42 43 43 44 45 45 45 45 46 46 47 48 49 50 50 50 48 47 50 52 53
33 33 33 33 32 32 32 33 33 33 34 34 35 36 37 37 38 39 40 41 42 43 44 45 45 46 47 47 47 47 48 48 49 50 51 52 53 54 55 53 52 53 55
33 33 33 33 33 33 33 33 33 34 35 35 36 37 38 39 40 41 42 43 44 45 46 47 47 48 48 48 49 49 49 50 51 52 53 54 55 57 59 59 58 57 57
33 33 32 32 33 33 33 33 34 35 35 36 37 38 39 40 41 42 43 45 46 47 48 49 49 50 50 50 50 51 51 52 53 54 55 56 58 59 61 62 62 62 60
32 32 32 32 32 33 33 33 34 35 36 36 37 39 40 41 42 44 45 46 48 49 49 50 51 51 51 51 52 52 53 54 55 56 57 58 60 61 62 63 64 64 63
31 31 31 31 32 32 33 34 34 35 36 38 39 40 41 42 44 45 47 48 49 50 51 52 52 52 52 53 53 54 55 55 56 57 58 59 60 61 63 64 66 67 67
31 31 31 31 31 32 33 34 34 36 37 39 40 41 42 44 45 47 48 49 50 51 52 53 53 53 53 54 54 55 56 56 57 58 59 60 61 63 64 66 67 69 70
31 31 31 31 32 32 33 34 35 36 38 39 41 42 43 45 47 48 49 50 51 52 52 53 53 54 55 55 56 56 57 58 58 59 60 61 63 64 66 67 69 70 72
31 31 31 32 32 33 34 35 36 37 39 40 42 44 45 47 48 49 50 51 51 52 52 53 54 54 55 56 56 57 58 58 59 61 62 63 65 66 67 69 70 72 74
31 31 32 32 33 34 35 36 37 39 40 42 43 45 46 48 49 49 50 50 51 52 53 54 54 55 56 57 57 58 59 60 61 62 63 65 67 68 70 71 73 75 78
32 33 33 34 34 35 37 38 39 40 42 43 44 46 47 48 48 49 50 51 52 53 54 55 55 56 57 58 58 59 60 61 62 64 66 68 70 72 73 75 77 80 82
33 34 34 35 35 37 38 39 40 41 42 44 45 46 47 48 49 50 51 51 52 54 54 55 56 57 58 59 60 60 61 63 65 67 69 71 73 75 78 80 82 84 85
35 35 35 36 37 37 39 40 41 42 44 45 46 47 48 48 49 50 51 52 53 54 55 56 56 57 58 60 61 63 65 67 69 71 73 75 77 80 82 84 85 87 87
35 35 36 36 37 38 40 41 43 44 45 46 46 47 48 49 50 51 52 52 53 54 55 56 57 58 61 63 65 67 69 70 73 75 77 79 81 83 84 85 85 85 84
35 35 36 37 39 40 41 43 44 45 45 46 46 47 48 49 50 51 52 53 54 55 56 57 59 61 64 66 68 70 72 74 76 78 81 82 82 83 85 84 83 81 79
36 37 38 39 40 41 42 43 44 45 45 46 47 48 49 49 50 51 53 53 55 56 57 59 62 64 67 70 72 75 77 78 79 81 82 82 83 83 83 82 80 76 72
37 38 39 40 41 42 43 44 44 45 45 46 47 48 49 50 51 52 53 54 56 58 60 62 65 68 71 74 76 79 81 81 81 81 81 82 82 81 80 78 74 70 65
37 39 40 41 42 43 43 44 44 45 45 46 47 48 49 50 51 53 54 56 58 61 63 66 68 71 74 77 79 81 83 83 82 81 81 79 78 76 73 70 66 62 57
38 39 40 41 42 43 43 44 44 44 45 45 47 48 49 51 52 54 56 59 62 64 67 70 72 74 77 79 81 82 83 83 83 81 78 75 73 69 65 62 58 54 49
39 40 41 41 42 42 43 43 43 44 45 46 47 48 50 52 54 57 59 62 65 68 71 74 75 77 79 80 82 82 82 82 80 77 74 70 66 62 58 55 51 47 43
39 39 40 41 41 42 42 42 43 44 45 46 48 50 52 54 57 59 62 66 69 72 74 76 79 80 80 81 82 81 80 78 75 72 68 63 59 56 52 48 44 41 38
38 39 39 40 41 41 42 42 43 45 46 48 50 52 54 57 60 63 66 69 72 75 77 80 82 82 82 82 82 80 77 73 70 67 62 57 53 49 45 42 38 36 34
38 38 39 40 40 41 42 43 44 46 48 50 52 55 57 60 63 66 69 71 74 77 79 82 83 84 83 81 78 75 71 68 65 61 56 51 48 44 40 36 34 32 32

GEFSMW_500_meanwind_096.txt.gz
Wind_Speed
33 32 32 31 31 31 31 31 31 31 31 32 32 32 33 33 33 33 33 33 34 34 35 35 36 36 37 38 39 40 40 40 41 41 41 42 43 43 44 45 46 46 47
34 33 33 32 32 32 32 32 32 32 32 32 33 33 33 33 33 34 34 34 35 35 35 36 37 38 39 40 41 41 41 42 42 42 43 43 44 45 46 47 47 48 49
35 35 33 33 32 32 32 32 33 33 33 33 33 33 33 34 34 34 34 35 36 36 37 37 38 40 41 42 42 43 43 43 44 45 45 45 44 45 46 47 49 50 51
35 35 34 34 34 33 33 33 33 33 33 33 33 33 34 34 35 35 35 36 36 37 38 39 40 41 42 43 44 44 45 45 46 47 47 47 47 46 45 46 48 50 51
35 35 35 35 34 34 33 33 33 33 33 33 33 33 34 34 35 35 36 36 37 38 39 40 41 42 43 44 46 46 47 47 47 48 48 48 48 49 49 47 48 49 51
36 36 36 36 35 34 33 33 33 33 33 33 33 34 34 34 35 36 37 37 38 39 40 41 42 43 45 46 47 47 48 48 48 49 49 49 50 50 51 50 50 50 51
36 36 35 35 34 33 33 33 33 33 33 33 33 34 34 35 35 36 37 38 39 40 41 42 44 45 46 47 48 48 49 49 49 50 50 51 51 52 52 52 52 52 52
34 35 34 34 33 32 32 32 31 32 32 32 33 34 35 35 35 36 38 39 40 42 43 44 45 47 47 48 49 49 49 49 50 50 51 51 52 53 53 54 55 54 54
33 33 32 32 32 31 31 31 31 31 32 32 33 34 34 35 36 37 39 40 41 43 44 46 47 48 48 49 49 49 50 50 51 51 52 53 53 54 55 56 57 58 58
31 31 31 31 30 30 31 31 31 31 32 32 32 33 34 35 37 39 40 42 43 45 46 47 48 49 49 49 49 50 50 51 51 52 53 53 54 55 56 58 60 61 63
29 29 29 29 30 30 30 30 30 30 31 32 33 34 35 37 39 40 42 44 45 46 47 47 48 49 49 49 50 50 51 52 52 53 54 55 56 57 59 61 63 65 67
29 29 29 29 30 29 29 30 30 31 32 33 34 35 36 38 40 42 43 44 45 46 47 47 48 49 49 50 50 51 52 53 53 55 55 56 58 60 62 65 67 69 71
29 28 29 29 29 29 29 30 31 32 33 34 35 36 37 39 41 42 43 45 46 46 47 48 49 49 50 51 52 52 53 54 55 56 58 59 62 64 66 69 71 73 75
28 28 28 28 29 30 31 32 33 33 34 35 36 37 38 40 41 43 44 45 46 47 48 48 49 50 51 51 52 53 54 55 57 59 61 63 66 68 71 73 75 77 78
27 28 28 29 30 31 32 32 33 34 35 36 37 38 39 41 43 44 45 46 46 47 48 49 50 50 51 52 53 54 56 58 59 62 64 67 69 72 74 76 78 79 80
28 28 29 30 31 32 32 33 33 34 35 36 38 39 41 42 43 44 45 46 47 48 49 49 50 51 52 54 55 57 58 60 63 65 68 70 73 75 77 78 79 81 82
28 28 29 30 31 31 32 33 34 36 36 37 39 40 41 42 43 44 45 46 47 48 48 49 50 52 54 55 57 59 61 64 67 69 71 74 75 77 79 79 79 80 81
29 29 29 30 31 32 32 34 35 36 37 38 39 40 41 42 43 44 45 46 47 48 49 50 52 54 55 57 60 62 65 68 70 72 74 76 77 78 79 79 79 78 77
29 29 30 30 31 32 33 34 35 37 37 38 39 40 41 42 43 44 45 46 47 48 50 51 53 55 58 60 63 66 69 70 72 74 76 77 78 79 80 79 78 75 72
29 29 30 31 32 33 33 35 36 36 37 38 39 40 41 42 43 44 45 47 48 49 51 53 55 58 61 64 67 69 72 73 75 76 77 78 78 78 78 77 74 70 67
29 29 30 30 31 33 34 35 36 36 38 38 39 40 41 42 44 45 46 48 49 51 53 55 58 61 64 66 69 72 74 76 77 77 78 78 77 76 74 72 69 66 64
28 29 29 30 32 33 34 35 36 37 38 39 40 41 42 43 44 45 47 49 51 53 56 58 61 64 66 69 71 73 76 78 79 79 78 76 74 72 70 68 65 63 60
28 29 30 32 33 34 35 36 37 38 38 39 40 41 42 43 44 46 48 51 53 56 59 62 64 66 69 71 73 75 77 78 79 78 76 74 71 69 66 63 60 58 55
30 31 32 33 34 35 36 37 37 38 38 39 40 41 42 44 46 49 51 54 57 59 62 65 67 69 71 73 75 77 78 78 78 76 73 71 68 65 61 57 54 52 49
31 32 33 34 35 36 36 37 37 38 39 40 41 42 44 46 49 51 54 57 59 63 65 68 70 72 74 76 78 79 79 78 77 74 71 67 63 59 55 52 49 46 42
32 33 34 34 35 36 36 37 38 38 39 41 43 45 47 49 52 55 57 60 63 65 68 71 74 75 77 78 79 79 78 76 74 70 66 62 58 53 50 46 43 40 37

GEFSMW_500_meanwind_102.txt.gz
Wind_Speed
35 35 35 35 35 36 36 36 36 36 36 35 35 35 35 35 35 35 35 35 35 36 36 36 37 37 38 39 39 40 40 41 41 41 42 43 43 44 44 44 44 44 44
38 37 37 37 36 37 37 37 37 37 37 36 36 36 36 36 36 36 36 36 36 36 36 37 37 38 39 40 40 41 41 42 42 43 43 43 43 44 44 45 45 45 45
38 38 37 37 37 37 37 38 37 37 37 37 37 37 37 37 37 36 36 36 36 36 37 37 38 39 40 40 41 41 42 43 44 45 45 44 44 44 44 45 45 45 46
37 38 38 37 38 38 38 38 37 37 37 38 38 38 38 37 37 37 37 37 36 37 37 38 39 40 40 41 41 43 43 44 45 46 46 46 46 45 44 44 45 45 45
38 39 39 38 37 37 37 38 38 37 38 38 38 38 37 37 37 36 36 36 37 37 38 39 39 40 40 41 42 43 44 45 46 47 47 47 47 47 46 44 44 45 46
38 38 38 37 37 37 37 37 38 38 38 38 38 37 37 37 36 36 36 37 37 37 39 39 39 40 41 42 43 45 46 47 48 48 48 48 47 47 47 46 45 45 45
37 37 37 37 37 37 37 37 38 37 37 37 37 37 37 37 36 36 37 36 37 38 39 39 40 41 42 44 45 46 47 48 48 48 48 48 48 48 48 47 47 46 46
35 35 35 36 36 36 36 37 36 36 36 36 36 36 36 36 36 36 36 36 37 38 39 40 41 42 43 44 46 47 48 48 48 48 48 48 48 48 49 49 49 48 47
34 34 34 35 35 35 35 35 35 34 35 35 35 35 35 35 35 35 36 37 37 38 40 41 42 43 44 45 47 48 48 48 48 48 48 49 49 49 50 50 50 50 50
33 33 33 34 34 34 33 34 33 33 34 34 34 34 34 34 35 36 36 37 37 39 40 41 43 44 45 47 48 48 48 49 49 49 49 49 50 50 50 51 52 54 55
31 31 31 31 31 31 31 32 32 32 32 32 33 33 33 34 35 36 36 37 38 40 40 42 44 45 46 47 48 48 49 49 49 49 50 50 51 51 52 54 55 57 59
29 29 29 29 29 29 30 30 31 31 31 32 32 33 33 34 35 36 37 38 39 40 41 43 45 46 47 48 48 49 49 49 50 50 51 51 52 53 55 57 59 61 63
27 27 28 28 28 29 29 30 30 31 31 32 33 33 34 35 36 36 37 39 40 41 43 45 46 47 48 48 49 49 49 50 51 51 52 53 55 56 58 60 63 65 67
26 27 27 27 28 29 29 29 30 31 31 32 32 33 34 35 36 37 38 40 41 42 44 45 47 47 48 48 49 50 51 51 52 53 54 56 58 59 62 64 66 69 70
26 27 27 28 28 28 29 29 30 30 31 32 32 33 34 35 36 37 39 41 42 43 44 46 46 47 48 49 50 51 52 52 54 55 57 59 61 63 65 68 69 71 73
27 27 28 28 28 28 29 29 30 30 31 32 33 34 34 35 37 38 40 41 42 44 45 45 46 47 49 50 51 52 53 55 56 58 60 62 64 66 68 69 71 74 76
27 27 27 27 28 28 29 29 30 30 31 32 32 33 34 36 37 38 40 41 43 43 44 45 47 48 50 52 53 54 56 57 59 61 63 65 67 68 70 71 73 75 77
27 27 26 27 27 28 28 29 30 30 31 32 33 34 35 37 38 39 41 42 42 43 45 46 48 49 51 53 54 56 58 60 62 64 66 67 69 70 72 73 74 75 75
26 26 26 27 27 28 28 29 30 31 32 33 34 35 36 37 38 40 41 42 43 44 46 48 49 51 53 55 57 59 61 63 65 67 68 69 71 72 74 75 75 74 73
26 26 26 27 27 27 28 29 30 31 33 33 34 35 36 38 39 40 41 42 44 45 47 49 51 52 55 57 59 62 64 66 67 68 69 71 73 73 74 75 75 74 72
26 26 27 27 27 28 29 30 31 31 33 34 35 36 37 39 40 40 42 43 45 46 48 50 52 54 57 59 62 64 67 68 68 69 70 71 73 73 74 74 74 72 70
27 27 27 27 28 29 29 30 31 32 33 34 35 37 38 39 40 41 43 44 46 48 49 51 54 56 59 61 64 66 67 68 69 70 70 71 72 72 73 72 71 69 66
27 27 28 28 29 29 30 30 31 33 34 35 36 37 38 39 41 42 44 45 47 49 51 54 56 58 60 63 66 67 68 69 70 70 70 71 71 71 70 68 67 65 62
27 28 29 29 29 29 30 31 32 34 34 35 36 37 39 40 42 43 45 46 49 52 54 56 58 60 63 65 67 68 69 70 70 71 71 72 71 70 68 65 63 60 57
28 28 28 29 29 30 31 32 33 34 35 36 37 38 40 41 43 44 46 49 51 54 56 59 61 63 65 67 69 70 70 71 71 72 72 71 69 67 65 62 58 54 50
29 29 29 30 31 31 32 33 34 35 36 37 38 40 41 43 44 46 49 51 54 57 59 61 63 65 68 69 70 71 71 71 72 72 70 68 66 64 61 57 52 48 44

GEFSMW_500_meanwind_108.txt.gz
Wind_Speed
31 30 30 30 30 30 31 31 32 32 33 33 34 34 35 35 35 35 36 37 37 37 38 38 38 38 38 38 39 39 39 39 39 39 40 40 41 42 42 43 43 43 43
33 32 32 33 33 33 32 33 33 33 33 34 35 35 35 35 35 36 37 38 38 38 38 38 38 38 39 39 39 39 39 39 39 40 40 40 41 42 42 43 44 44 45
34 34 34 34 34 33 33 33 34 34 35 35 35 36 36 36 36 37 38 38 38 38 38 38 38 39 39 39 39 39 39 40 40 40 40 41 41 41 42 43 44 45 45
35 35 34 34 34 34 34 35 35 35 35 35 36 36 36 37 37 38 38 38 38 38 38 38 38 38 39 39 40 40 40 40 40 40 41 42 42 43 43 43 44 44 44
35 35 35 34 34 34 34 35 35 35 35 35 36 37 37 37 37 37 37 37 37 38 38 38 38 38 39 39 39 40 40 40 41 41 42 43 44 44 44 44 44 44 45
35 35 35 35 34 34 34 34 35 35 35 35 36 36 37 37 36 36 37 37 37 38 38 38 38 38 38 39 39 40 41 41 42 43 43 44 45 45 45 45 44 44 44
35 35 35 34 34 34 34 34 35 34 34 35 35 36 36 36 36 37 37 37 37 37 37 37 37 38 38 39 40 41 41 42 43 44 45 45 46 46 46 46 45 44 44
35 35 35 34 34 34 34 34 34 34 34 35 35 35 35 35 36 36 36 36 36 36 37 37 38 38 39 40 40 41 42 43 44 45 46 46 47 47 47 48 48 47 46
34 34 34 34 34 33 33 33 33 34 34 34 34 34 35 35 35 35 35 36 36 36 37 37 38 39 39 40 41 42 43 44 45 46 47 47 48 48 49 49 50 49 48
32 32 32 32 33 33 33 33 33 33 33 33 33 34 34 34 34 35 35 36 36 36 37 37 38 39 40 41 42 43 44 45 46 47 48 48 49 50 50 51 51 52 52
29 29 30 30 31 31 31 31 31 31 32 32 32 32 33 33 33 34 34 35 35 36 37 37 38 39 40 41 42 43 45 45 46 47 48 49 50 51 52 52 53 54 55
27 27 28 29 30 30 30 29 29 30 30 31 31 31 32 32 33 33 34 35 35 36 37 37 38 39 40 42 43 44 45 46 47 48 49 50 51 52 53 54 55 57 59
26 26 27 28 28 28 28 28 28 29 30 30 31 31 31 32 32 33 33 34 35 36 37 37 38 39 41 42 43 45 46 47 48 49 51 52 53 54 55 57 58 60 62
26 26 26 26 26 27 27 28 28 29 29 30 30 30 31 31 32 32 33 33 34 35 36 37 38 40 41 43 44 46 47 48 49 51 52 53 55 56 58 59 61 63 65
25 26 25 25 26 27 27 27 28 28 28 29 29 30 30 31 31 31 32 33 34 35 36 38 39 40 42 44 45 46 48 49 50 52 53 55 57 58 60 63 64 66 67
25 25 25 26 26 26 27 27 27 28 28 29 29 30 30 30 31 31 32 33 35 36 37 39 40 41 43 45 46 48 49 50 51 53 55 57 59 61 63 65 67 68 70
26 26 26 26 26 26 27 27 28 28 28 29 29 29 30 30 31 32 33 34 36 37 38 39 40 42 44 45 47 48 49 51 53 54 56 59 61 63 65 67 68 69 71
26 26 26 26 26 26 27 27 28 28 28 29 29 29 29 30 31 33 34 35 36 37 39 40 41 42 44 46 47 49 51 52 54 56 58 60 63 65 67 68 69 70 70
26 26 26 26 26 27 27 28 28 28 28 28 29 29 30 31 32 33 34 36 37 38 39 40 42 43 45 47 49 50 52 53 55 57 60 62 64 67 69 70 70 69 69
27 27 27 27 27 28 28 28 28 28 28 29 29 30 31 32 33 34 35 36 37 38 39 40 42 44 46 48 50 51 52 54 57 59 62 64 66 68 69 70 70 70 70
27 27 28 28 28 28 28 28 28 28 29 29 30 30 31 32 33 34 35 36 37 38 40 41 43 45 47 49 51 53 55 57 59 61 63 66 68 69 70 71 71 70 69
27 27 28 28 28 28 28 28 28 28 29 29 30 31 31 32 33 35 35 36 38 39 41 42 44 47 49 50 52 55 57 59 61 63 66 67 68 70 71 71 70 68 67
26 27 27 27 27 28 28 28 28 28 29 29 30 31 32 33 34 35 36 37 39 40 42 44 46 48 50 52 54 57 59 61 63 65 67 68 69 70 69 68 66 65 64
26 26 27 27 27 27 28 28 28 28 29 30 31 31 33 34 35 36 37 38 40 42 43 46 48 50 52 54 56 58 61 63 65 66 67 68 68 67 66 64 63 62 61
26 26 27 27 27 28 28 28 29 29 30 31 32 32 33 34 35 37 38 40 41 43 45 47 50 51 53 56 58 60 62 64 66 66 67 67 66 65 63 61 60 59 57
26 26 27 27 27 27 28 28 29 30 31 31 32 33 34 35 36 38 40 41 43 44 47 49 52 53 56 58 60 62 63 65 66 67 67 66 64 62 59 57 56 54 51

GEFSMW_500_meanwind_114.txt.gz
Wind_Speed
31 30 29 29 28 28 28 28 28 29 29 30 30 31 32 32 33 34 35 35 36 36 37 37 37 38 38 39 39 39 40 40 40 40 40 41 41 41 41 42 42 43 43
33 32 31 31 30 30 30 30 30 31 31 32 32 33 33 33 34 36 36 37 37 37 37 38 38 38 38 39 39 40 40 40 40 40 40 40 40 41 42 42 43 43 43
35 34 33 33 32 31 31 31 31 32 33 33 34 34 34 35 36 37 37 37 37 37 38 38 39 39 39 39 39 39 39 40 40 41 41 41 41 41 41 42 43 44 44
37 36 35 34 33 33 33 33 33 33 34 34 34 34 35 36 37 37 37 37 37 38 38 39 39 38 38 39 39 39 39 40 40 41 41 42 42 42 42 43 44 44 45
38 37 36 35 34 34 34 34 34 34 34 35 35 35 36 36 37 37 37 37 38 38 38 38 38 38 38 38 39 39 39 40 40 41 42 42 43 43 43 43 44 44 45
38 37 37 36 35 35 35 35 35 35 35 35 36 36 36 37 37 37 37 37 38 37 37 37 38 38 38 38 39 39 39 40 41 42 43 43 43 44 44 44 45 45 45
39 38 37 37 36 36 36 36 36 36 36 36 36 37 37 37 37 37 37 37 37 37 37 37 37 37 38 38 38 39 39 40 41 42 43 43 44 45 45 46 46 46 46
38 38 37 37 36 36 36 36 36 36 36 36 36 36 36 36 36 36 36 36 36 36 37 37 37 37 38 38 38 39 39 41 42 42 43 44 45 46 47 47 48 48 48
37 37 37 37 37 36 36 36 36 36 36 36 36 36 35 35 36 36 36 36 36 36 37 36 37 37 37 37 38 39 40 41 42 43 44 45 46 47 48 49 50 51 51
37 37 37 37 37 37 36 36 36 35 35 35 35 35 35 35 35 35 35 35 35 36 36 36 36 37 37 38 38 39 40 41 42 44 45 46 47 48 49 51 52 53 54
37 37 37 37 36 36 36 36 35 35 35 34 34 34 34 34 34 35 35 35 35 35 35 35 36 36 37 37 38 39 40 42 43 44 45 47 48 49 51 52 54 55 56
36 36 36 35 35 35 35 35 34 34 33 33 33 33 33 33 33 34 34 34 34 35 35 35 35 36 36 37 38 39 41 42 44 45 46 48 49 50 52 53 55 56 57
35 34 34 35 34 34 34 33 33 33 32 32 32 32 32 32 32 32 32 33 33 33 34 34 35 36 37 38 39 40 42 43 44 46 47 49 50 52 53 54 56 57 59
33 33 34 34 34 33 32 32 32 31 31 31 31 31 31 31 31 31 32 32 33 33 33 34 35 36 37 38 40 41 43 44 45 47 49 50 52 53 54 56 57 59 61
33 33 33 33 32 32 31 31 30 30 30 30 30 30 30 30 30 31 31 32 32 33 34 35 36 37 38 39 40 42 43 45 46 48 49 51 52 54 55 57 59 61 63
32 32 32 32 31 31 30 30 29 29 29 29 29 29 30 30 30 31 31 31 32 33 34 35 36 37 38 40 41 43 44 45 47 48 50 51 53 55 57 59 61 63 65
33 32 32 31 30 30 29 29 29 29 29 29 29 29 29 30 30 31 31 32 33 34 35 36 37 38 39 40 42 43 44 46 47 49 50 52 55 56 58 60 62 64 67
32 32 32 31 30 29 29 28 28 28 28 28 28 29 29 30 30 31 32 33 33 34 34 36 37 38 39 41 42 43 45 47 48 49 51 54 56 57 59 61 64 66 68
33 33 33 31 30 29 29 28 28 28 28 28 28 29 29 30 30 31 32 33 33 34 35 36 37 38 40 41 43 44 46 47 49 51 53 55 57 59 61 63 65 66 67
35 34 32 31 30 29 29 28 28 27 28 28 29 29 29 30 31 31 32 32 33 34 35 36 37 39 40 41 43 45 46 48 50 52 54 56 59 61 63 65 66 67 67
35 33 32 31 30 29 29 28 28 28 28 29 29 30 30 31 31 31 32 33 33 34 35 36 38 39 40 42 44 46 47 49 51 53 56 58 61 63 64 65 67 68 68
34 33 32 31 30 29 29 28 28 28 29 29 30 30 30 30 30 31 32 33 34 34 35 36 38 39 41 42 44 46 48 50 53 55 58 60 62 63 64 66 67 67 66
33 32 31 30 30 29 28 28 28 28 28 29 29 30 30 30 31 31 32 33 33 34 35 36 38 39 41 43 45 48 50 52 55 57 59 61 62 63 65 65 65 65 65
32 32 31 30 30 29 28 28 28 28 28 28 28 29 30 30 30 31 32 32 33 34 35 37 38 40 41 44 46 49 51 54 56 58 60 61 62 63 64 64 63 63 62
32 31 31 30 29 29 28 28 28 28 28 28 28 29 29 30 31 31 32 32 33 34 36 37 39 41 43 45 48 50 53 55 57 59 60 61 61 63 63 62 61 59 58
31 30 30 29 29 28 28 28 27 27 27 28 29 29 30 30 31 31 32 33 34 35 37 38 40 42 44 46 49 52 54 56 58 59 60 60 61 61 61 59 58 56 54

GEFSMW_500_meanwind_120.txt.gz
Wind_Speed
39 39 37 36 36 34 33 32 31 30 30 29 29 30 30 30 30 30 30 31 32 33 34 34 35 35 35 36 36 36 36 37 37 37 37 37 37 37 37 38 38 38 39
41 40 39 37 36 35 34 33 32 32 31 31 31 32 32 31 31 31 32 33 34 34 34 35 35 35 36 36 36 36 36 36 36 37 37 37 37 37 37 38 39 39 39
43 41 40 38 37 36 35 34 34 33 33 33 33 33 33 33 33 33 34 34 35 35 35 35 35 35 36 36 36 36 36 36 36 36 37 37 37 38 38 38 39 40 40
44 43 41 40 38 37 36 35 35 34 34 34 34 34 34 34 34 35 35 35 35 35 35 35 35 35 36 36 36 36 36 36 36 36 37 37 38 38 38 39 40 41 41
45 44 42 41 39 39 38 36 36 35 35 35 35 35 35 35 36 36 36 36 35 35 36 36 35 36 36 36 36 36 36 36 36 36 37 37 38 39 40 40 41 42 43
45 44 43 43 41 40 39 38 37 36 36 36 36 36 36 36 36 36 36 36 36 36 36 36 35 36 36 36 36 35 35 36 36 36 37 38 39 40 41 41 42 43 44
46 45 44 43 42 41 40 39 38 37 37 36 36 36 36 36 36 36 36 36 36 36 36 36 35 35 35 35 35 35 35 36 36 37 38 39 40 40 41 43 43 44 45
47 46 45 43 42 41 40 39 38 37 37 37 36 36 36 36 36 36 36 36 36 36 36 35 35 35 35 35 35 35 35 36 36 37 38 39 41 41 43 44 45 46 47
46 45 45 44 42 41 40 39 39 38 37 37 36 36 36 36 36 35 35 35 35 35 35 35 35 35 34 34 35 35 35 36 37 38 39 40 41 43 45 46 47 48 49
45 45 44 43 41 40 40 40 39 38 37 37 36 36 35 35 35 35 35 35 35 35 35 34 34 34 34 34 34 35 35 36 37 38 39 41 43 44 46 47 48 49 50
44 44 43 42 41 40 40 39 39 38 37 36 36 35 34 34 34 34 34 34 34 34 34 33 33 33 34 34 34 35 36 37 38 39 40 42 44 45 46 47 48 50 52
42 42 41 41 41 40 40 39 38 37 36 35 35 34 34 34 34 34 34 33 33 33 33 33 33 33 34 34 34 35 36 37 39 40 41 43 44 46 47 47 49 51 53
40 40 40 40 40 39 39 38 37 36 35 35 34 34 33 33 33 33 33 33 33 32 32 33 33 33 34 34 35 36 37 38 39 41 42 44 45 46 47 48 50 52 54
39 39 39 39 39 38 37 36 36 35 34 34 34 33 33 33 33 32 32 32 32 32 32 32 33 33 33 34 35 36 37 38 40 41 42 44 45 46 48 50 52 54 56
38 38 38 38 37 37 36 35 34 34 33 33 33 32 32 32 32 31 31 31 31 31 32 32 32 33 33 34 35 36 37 38 40 41 42 44 45 47 49 51 53 55 58
38 38 38 37 37 36 35 34 33 33 33 32 32 31 31 31 31 31 30 30 30 30 31 31 32 33 33 34 35 36 38 39 40 41 42 44 46 48 50 52 54 57 60
39 39 38 37 36 36 35 34 33 32 32 32 31 31 30 30 30 30 30 29 30 30 30 31 32 32 33 35 36 37 38 39 40 41 43 45 47 49 51 53 56 59 62
40 39 39 37 36 35 34 34 33 32 31 31 30 30 29 29 29 29 29 29 29 30 30 31 32 33 34 35 36 37 38 39 41 42 43 45 48 50 53 55 58 61 63
41 39 38 37 36 35 34 33 32 31 30 30 29 29 29 28 28 28 28 28 29 30 31 32 33 34 34 35 36 37 38 40 41 42 44 47 49 52 54 57 60 62 63
41 40 39 38 37 36 34 33 31 30 29 29 29 28 28 28 28 28 28 29 30 30 31 32 33 34 34 35 36 38 39 40 41 43 45 48 51 53 56 58 61 62 63
41 40 39 38 37 36 34 33 31 30 29 29 29 28 28 28 28 28 29 29 30 30 31 32 33 34 35 36 37 38 39 40 42 44 46 49 52 54 57 59 61 62 62
41 40 39 37 36 35 34 33 32 31 30 29 29 28 28 28 28 28 29 29 30 31 32 32 33 34 35 36 37 38 39 41 43 45 47 50 52 55 58 60 60 61 62
40 38 37 36 36 35 34 33 32 31 30 29 29 29 29 28 28 29 29 30 30 31 32 33 33 34 35 36 37 38 39 41 43 45 48 50 53 56 58 59 60 61 61
39 37 36 36 35 35 34 33 32 31 30 29 29 28 28 28 28 29 29 30 31 31 32 33 33 34 35 36 37 38 40 41 43 46 48 51 54 57 58 58 60 61 60
38 37 36 35 34 33 33 32 31 31 30 29 29 28 28 28 29 29 29 30 30 31 31 32 33 33 34 35 36 38 40 42 44 47 49 52 55 57 57 58 59 60 59
39 38 36 35 34 33 32 32 31 31 30 29 29 29 28 29 29 29 30 30 30 31 32 32 32 33 34 35 37 39 41 42 45 47 50 53 55 56 57 58 59 58 57

GEFSMW_500_meanwind_126.txt.gz
Wind_Speed
44 44 43 42 41 40 39 38 37 36 34 33 31 30 29 28 27 27 27 27 27 27 28 29 30 31 32 32 33 34 34 35 36 36 37 37 38 38 38 38 38 38 39
46 45 44 43 42 41 40 38 38 37 35 34 32 31 30 30 29 28 28 28 28 29 30 30 31 32 32 33 34 34 35 36 36 36 37 37 37 37 38 38 38 39 40
48 46 45 44 43 42 40 39 38 38 36 35 33 32 31 31 30 29 29 29 30 30 30 31 32 32 33 34 34 35 36 36 36 37 37 38 37 37 37 38 39 40 41
49 47 46 45 44 42 42 41 39 38 38 36 35 33 32 31 31 31 31 31 31 31 31 32 32 33 34 34 35 35 36 36 37 37 38 38 38 38 37 38 40 41 42
50 49 47 46 45 43 42 41 40 39 38 37 36 35 33 33 33 32 32 32 32 32 33 33 33 34 34 35 35 35 35 36 37 37 38 38 38 39 39 39 41 42 42
51 50 48 47 45 44 43 42 41 40 39 38 37 36 35 34 34 33 33 33 33 34 34 34 34 34 35 35 35 35 36 36 37 38 38 38 38 39 40 41 42 42 43
51 50 49 47 45 44 43 43 42 41 40 39 38 36 36 36 35 34 34 34 34 34 34 35 35 35 35 35 35 35 36 36 37 37 38 39 39 40 41 42 43 43 44
50 50 50 48 47 46 45 43 42 41 40 39 38 37 36 36 35 35 36 36 35 35 35 35 35 35 35 35 35 35 36 36 37 38 38 39 40 41 42 43 44 44 44
50 49 49 49 48 47 46 45 43 42 41 40 39 38 37 36 36 36 36 36 35 35 35 35 35 35 35 34 35 35 36 36 37 38 39 39 41 42 43 43 44 46 46
49 49 49 49 48 47 47 45 44 42 42 41 40 39 37 37 37 37 36 35 34 34 34 35 35 35 34 34 34 35 36 36 37 38 39 40 41 42 43 44 45 47 48
48 49 49 49 49 47 47 45 44 43 42 41 40 39 39 38 37 37 36 35 34 34 34 35 34 34 33 34 34 35 36 36 37 39 40 41 42 42 43 44 46 47 49
47 48 49 48 48 48 47 46 45 44 43 42 41 40 39 38 38 36 36 35 34 34 34 34 34 33 33 34 34 34 36 37 38 39 40 41 42 42 43 45 47 48 50
47 47 48 47 46 47 47 46 45 44 43 42 42 40 40 39 37 36 35 34 34 34 34 33 32 32 33 33 34 35 36 37 38 39 40 41 42 43 44 46 47 49 51
46 46 46 45 45 45 46 46 45 44 43 41 40 40 39 38 37 36 34 34 34 34 33 32 32 32 33 33 34 35 36 37 38 39 40 41 42 43 45 47 49 51 52
44 45 45 45 45 44 44 45 44 43 42 41 40 39 38 37 36 34 34 34 33 32 32 32 32 32 32 33 34 35 36 37 38 39 41 42 42 44 46 48 50 51 53
44 44 45 45 44 43 42 41 41 41 40 40 39 37 36 35 35 34 34 33 32 31 31 31 31 32 32 33 34 35 36 37 38 39 40 41 43 44 46 48 50 52 54
43 43 43 43 42 41 40 39 39 39 39 38 37 36 35 35 34 33 32 32 31 30 30 31 31 31 31 33 34 35 36 37 38 39 40 41 43 45 47 49 51 52 55
42 42 42 42 42 41 40 40 39 38 37 36 35 34 34 33 32 31 31 30 30 29 29 30 30 31 31 32 33 35 36 37 38 39 40 41 43 45 47 49 50 52 55
41 42 42 42 42 41 41 40 39 38 37 35 34 33 32 31 31 30 30 29 29 29 29 29 30 31 31 32 33 35 36 37 38 39 40 41 43 45 48 49 51 53 56
41 42 42 41 41 40 39 38 38 37 36 34 33 32 32 31 30 30 29 29 28 28 28 29 29 30 31 32 33 34 35 36 37 39 40 42 44 45 48 49 51 54 56
43 42 42 41 40 39 38 38 37 36 35 34 32 32 31 31 30 29 28 28 27 27 28 29 29 30 31 32 33 34 35 36 37 39 41 42 44 45 48 50 52 55 56
43 43 42 41 40 39 38 37 37 36 35 33 32 31 31 30 29 28 27 27 27 27 28 28 29 30 31 32 33 34 35 36 38 39 41 42 44 46 48 51 53 55 56
42 42 41 40 40 39 38 37 37 36 34 33 32 31 30 29 28 27 27 26 26 27 28 28 29 30 31 32 33 34 35 37 38 39 41 42 44 46 49 51 53 55 57
42 42 41 40 39 39 38 37 36 34 34 32 31 30 29 29 28 27 26 26 27 27 27 28 29 30 31 32 33 35 36 37 38 39 41 42 44 47 49 51 53 55 57
42 42 41 40 39 38 37 36 35 34 34 32 31 30 29 28 27 27 27 27 27 26 27 28 29 30 31 32 34 35 36 37 38 39 40 42 45 47 49 51 54 56 57
43 43 42 41 39 39 38 36 35 34 33 32 30 29 28 28 27 27 27 26 26 27 27 28 29 30 31 33 34 35 36 37 38 39 40 43 45 47 50 51 54 56 57

GEFSMW_500_meanwind_132.txt.gz
Wind_Speed
49 48 48 47 46 44 42 41 39 39 38 37 36 35 33 32 32 31 30 28 27 27 26 26 26 26 27 27 27 27 28 29 30 31 32 33 34 34 35 36 37 37 38
52 50 48 48 47 45 43 42 40 39 38 37 36 35 34 33 32 32 31 29 28 28 28 27 27 27 27 28 28 28 29 30 31 32 32 33 34 34 35 36 37 38 38
52 51 49 49 48 46 44 42 41 40 39 38 37 36 35 34 33 32 31 30 29 29 29 28 28 28 28 28 28 29 30 31 32 32 33 33 34 35 35 36 37 38 39
53 52 50 49 48 46 45 43 41 40 40 39 38 36 35 34 33 32 31 31 30 30 29 29 29 29 29 29 29 30 31 32 32 33 33 34 34 35 35 37 38 39 40
52 52 51 49 48 47 46 44 42 41 41 40 39 37 35 35 34 33 32 31 31 30 30 30 30 29 30 30 30 31 31 32 33 33 34 34 35 35 36 37 39 40 41
51 51 51 50 49 49 47 45 43 42 41 40 39 37 36 35 35 34 33 32 31 31 30 31 30 30 30 31 31 31 32 33 33 34 34 35 35 36 37 38 39 40 41
52 51 51 50 50 49 48 46 44 42 41 40 39 38 37 36 35 34 34 33 32 32 31 31 31 31 31 31 31 32 33 33 34 34 34 35 36 37 38 39 40 41 41
52 51 51 50 49 49 48 46 44 43 41 40 39 38 37 36 35 35 34 33 33 32 32 32 32 32 32 32 32 33 33 34 34 34 35 36 37 38 39 40 41 41 42
52 51 50 50 49 48 47 46 44 43 42 40 39 38 37 36 35 35 34 34 33 33 33 33 32 32 32 32 33 33 34 34 34 35 35 36 37 38 40 41 42 42 43
50 50 50 50 49 48 47 46 45 44 42 41 40 39 37 36 36 35 35 34 33 33 33 33 33 33 33 33 33 34 34 35 35 35 35 36 37 39 40 41 42 44 45
49 49 50 50 49 49 48 46 46 44 43 42 41 39 38 37 37 36 34 33 33 34 34 33 33 33 33 33 34 34 34 35 35 35 35 36 38 39 40 41 43 45 46
49 48 48 49 49 48 48 47 45 44 43 42 41 40 39 38 37 36 35 34 34 34 34 33 33 33 34 34 34 34 34 34 34 35 35 36 38 39 41 42 43 45 46
46 48 48 49 49 49 47 46 45 44 43 43 42 41 40 39 37 36 36 36 35 35 34 34 34 34 34 34 34 33 34 34 35 35 36 37 39 40 41 42 43 44 46
44 45 47 48 49 49 48 47 46 45 44 44 43 42 40 39 38 37 37 36 35 35 35 35 35 35 34 34 33 33 34 35 35 35 36 37 39 40 41 42 43 44 46
43 44 45 46 47 49 49 48 47 47 46 45 44 43 41 40 40 39 38 37 35 35 36 35 35 34 34 33 33 34 34 34 34 35 36 37 39 40 41 42 43 44 46
41 43 44 44 44 46 48 47 46 45 46 46 44 43 42 41 40 39 38 38 37 36 35 35 35 34 34 33 33 33 33 33 34 35 36 37 38 40 40 42 43 45 46
41 42 44 45 44 45 46 46 46 45 45 44 44 44 42 41 40 39 39 39 38 37 36 35 34 34 34 33 32 32 33 33 33 34 36 37 38 39 40 41 43 45 46
41 42 44 45 46 46 46 46 46 45 45 44 43 43 42 41 40 40 40 39 38 37 36 35 34 34 33 32 32 32 32 32 33 34 35 36 38 39 40 41 43 45 47
41 42 44 45 46 47 47 47 46 46 45 44 44 43 42 41 40 39 38 38 38 37 36 35 33 32 31 31 31 31 31 31 32 33 35 36 37 38 40 42 44 45 47
42 43 45 45 46 46 47 47 47 46 45 44 43 43 42 41 39 38 37 36 36 36 34 33 32 31 30 29 30 30 30 31 31 33 34 36 37 38 40 42 44 45 47
41 43 45 46 46 46 47 49 48 47 45 44 43 42 41 40 38 37 37 36 35 33 32 30 30 29 29 29 29 29 30 30 31 33 34 35 37 38 40 42 44 45 47
41 42 44 45 46 46 47 47 48 47 46 44 42 41 40 39 38 37 37 35 33 31 30 29 29 28 28 28 28 29 29 30 32 33 34 35 37 38 40 41 44 45 47
43 42 43 45 45 45 46 46 45 45 44 43 41 40 39 38 37 36 34 32 31 30 29 29 28 27 27 27 28 28 29 30 31 32 34 35 37 38 39 42 44 46 47
44 43 43 45 45 45 45 46 45 44 43 42 41 39 38 37 35 33 32 30 29 29 29 28 27 26 26 27 27 28 29 30 31 32 33 35 36 37 39 42 43 45 48
43 43 43 44 44 44 45 46 45 44 43 42 41 39 37 35 34 32 31 29 29 29 28 27 26 25 25 26 27 28 29 30 31 32 33 34 36 37 39 41 43 45 48
41 41 42 42 44 44 45 45 45 43 42 41 40 38 36 34 33 32 31 30 30 29 28 27 26 25 26 27 27 28 28 30 30 31 32 34 36 37 39 41 43 46 49

GEFSMW_500_meanwind_138.txt.gz
Wind_Speed
55 56 56 55 54 53 51 50 48 46 46 45 43 42 40 39 39 37 36 35 34 33 31 29 28 27 26 26 26 26 26 26 27 28 29 29 30 31 32 33 34 35 36
56 55 55 55 55 54 52 50 48 47 46 45 44 43 41 40 39 38 37 36 35 34 32 30 29 28 28 27 27 27 27 27 27 28 29 30 31 32 33 34 35 36 37
55 55 55 56 55 54 53 51 49 48 47 46 45 44 42 41 39 38 37 36 35 34 33 32 30 29 29 28 28 28 28 28 28 29 30 30 31 32 33 34 36 37 38
53 54 55 56 55 54 53 52 50 49 48 47 45 44 42 40 39 38 37 36 35 35 34 33 32 31 30 29 29 29 29 29 29 30 30 32 33 33 34 35 36 38 39
52 54 54 54 54 54 54 53 52 50 49 48 46 44 43 41 40 38 37 36 36 35 34 33 32 32 30 30 30 30 30 30 30 31 31 32 33 34 35 35 37 38 40
51 52 54 54 55 55 55 55 53 51 49 48 46 45 43 42 40 39 38 37 36 35 34 33 33 32 31 31 31 31 31 31 31 32 33 33 34 34 35 36 37 39 41
50 52 53 54 56 56 55 55 54 52 50 49 47 46 44 42 41 40 39 37 36 35 35 34 33 33 32 32 32 31 31 32 32 33 33 34 35 36 36 37 38 39 41
50 51 52 53 54 55 55 55 55 52 51 50 48 46 45 43 42 41 39 38 37 36 35 35 34 33 33 33 32 32 32 33 33 34 34 35 36 36 38 39 40 41 41
48 50 51 52 53 54 54 53 54 52 51 51 49 47 45 44 42 41 40 39 37 37 36 35 35 34 34 33 33 33 34 34 34 34 35 35 36 37 39 40 41 42 43
46 48 50 50 53 54 53 53 54 53 51 50 50 48 46 44 43 42 41 39 38 38 37 36 36 35 35 34 34 35 35 34 35 35 35 35 37 38 39 41 42 43 44
44 47 49 50 52 54 55 54 53 54 52 51 50 48 47 46 44 43 41 40 39 38 37 37 37 36 36 35 35 36 36 36 36 36 35 36 37 39 40 41 42 43 44
42 45 47 49 52 53 54 54 53 53 52 52 51 49 48 47 45 43 42 41 40 39 38 38 37 37 36 36 36 36 36 36 36 36 36 37 38 39 40 41 42 43 44
41 44 46 47 50 52 52 53 53 53 52 52 51 50 48 47 45 44 43 41 40 40 39 38 38 38 37 37 36 36 36 37 36 36 36 37 39 39 40 41 42 43 43
39 43 45 47 49 50 51 53 53 53 52 52 51 50 48 46 45 44 43 42 41 40 40 39 39 39 38 38 37 37 36 36 36 36 37 38 38 39 39 41 41 42 44
38 41 44 46 48 50 51 52 53 53 52 51 50 49 48 47 45 45 44 43 41 41 40 40 39 39 38 37 37 36 36 36 36 36 37 37 38 38 39 40 41 42 43
37 41 43 44 47 49 50 51 52 53 52 52 51 49 49 48 47 46 45 44 43 42 41 40 40 39 38 37 36 35 35 36 36 36 36 37 37 38 38 39 41 42 43
37 40 43 44 45 47 48 50 51 52 52 51 51 50 49 49 48 48 47 45 44 43 41 41 40 39 38 37 36 36 36 36 35 35 36 36 37 37 38 40 41 42 42
38 40 42 44 45 46 47 49 50 51 52 51 51 49 48 49 48 48 47 46 45 43 42 41 40 39 38 37 36 36 36 36 35 35 36 36 36 37 38 39 40 40 41
38 40 42 44 46 46 47 48 49 50 50 51 50 50 49 49 48 47 46 46 45 44 42 40 40 39 38 37 36 36 36 35 35 35 35 35 35 36 37 38 38 40 42
39 40 41 43 45 46 47 49 49 49 49 50 50 49 50 49 48 47 46 45 44 43 42 40 39 38 37 36 36 35 35 35 34 35 35 34 34 35 36 37 38 39 42
39 40 41 43 44 45 46 48 49 50 50 50 50 51 50 49 48 47 46 44 44 43 41 40 39 37 36 36 35 35 35 34 34 34 33 33 33 34 35 36 38 39 42
40 40 41 43 44 44 46 46 48 49 50 51 50 50 50 49 48 47 46 44 43 41 39 38 37 36 35 35 35 35 33 33 32 32 31 32 33 34 34 36 37 40 42
40 41 41 42 43 44 45 46 48 49 49 50 51 50 49 48 47 46 45 43 42 40 39 37 36 36 35 34 34 33 31 31 31 31 31 31 32 33 34 35 38 40 41
40 41 41 43 43 44 45 46 48 49 49 49 49 49 49 48 46 45 44 43 41 40 38 37 36 35 34 33 32 31 30 30 30 30 30 30 31 32 33 36 37 39 41
39 40 40 42 43 45 45 45 46 47 47 48 48 49 48 48 47 45 44 42 40 39 38 37 36 34 33 32 31 30 29 29 28 28 29 29 30 32 33 35 37 39 41
37 39 40 40 43 45 46 45 45 46 46 46 47 47 47 46 45 44 43 41 39 39 38 37 36 34 33 31 30 29 28 27 27 27 28 29 30 31 33 35 36 39 40

GEFSMW_500_meanwind_144.txt.gz
Wind_Speed
50 51 54 57 59 59 59 59 58 58 57 55 53 52 50 49 48 47 46 45 43 41 39 38 36 34 33 31 30 29 29 28 27 27 27 27 27 28 29 30 31 32 33
47 49 52 54 57 59 59 59 58 58 57 56 54 52 51 50 49 48 46 45 44 42 40 38 37 35 34 33 32 31 30 29 29 28 29 28 29 29 30 31 32 33 34
45 48 51 53 55 57 58 59 58 57 57 56 54 52 51 51 50 48 47 46 45 44 42 40 38 37 35 34 33 32 31 31 30 30 30 30 30 31 32 32 33 34 35
43 46 49 52 53 56 57 58 58 57 57 57 55 52 51 51 50 49 48 48 47 45 43 41 39 38 36 36 35 34 33 32 32 31 31 31 31 32 32 33 34 34 36
41 44 47 51 52 54 56 58 58 57 56 56 55 53 51 51 51 50 49 48 47 45 43 42 40 39 38 37 36 35 34 34 33 33 32 32 33 33 34 34 34 35 36
39 41 45 49 51 52 55 57 58 57 56 56 55 54 51 51 51 49 48 47 47 45 44 42 41 40 39 38 37 36 35 35 34 34 34 34 34 34 35 35 35 36 37
37 39 42 46 49 51 54 56 58 57 57 56 55 55 52 51 51 49 48 47 46 45 44 43 42 40 39 38 37 36 36 36 35 35 35 35 35 35 36 36 36 37 38
35 38 40 44 48 50 53 55 56 56 57 57 55 54 52 50 50 50 48 47 46 45 44 44 43 41 40 38 38 37 37 37 36 36 36 36 36 36 36 37 37 38 39
33 36 39 42 47 49 51 54 55 55 56 57 56 56 52 50 49 49 49 47 46 45 44 43 43 41 40 39 38 38 37 37 37 37 37 37 36 36 37 37 38 39 39
33 36 39 40 44 47 50 53 55 56 55 56 57 56 54 51 50 49 49 48 46 46 45 44 43 42 41 40 39 38 38 37 37 37 37 37 37 37 38 38 39 40 41
31 35 38 40 44 46 49 53 54 54 56 56 56 56 53 52 50 50 49 49 47 46 45 45 44 43 41 40 39 38 38 38 37 37 37 37 37 38 38 39 39 41 41
29 32 36 40 43 46 49 52 53 54 55 56 57 58 54 52 52 50 49 49 48 47 46 45 44 43 42 41 39 39 39 38 38 38 38 38 38 38 38 39 40 41 42
31 31 35 39 42 45 47 50 52 53 54 55 56 57 55 53 52 51 49 48 48 47 46 45 44 42 41 41 40 39 39 38 38 38 38 38 38 38 39 39 40 41 42
31 32 33 37 41 45 46 48 51 52 53 54 54 55 54 54 52 51 50 49 49 48 47 46 45 43 42 41 40 40 39 38 38 38 38 38 38 39 39 40 40 41 41
31 32 34 36 40 45 46 47 49 50 52 54 54 55 54 53 53 52 50 50 49 48 47 47 46 45 43 42 41 40 39 39 39 38 38 38 38 39 39 39 40 41 41
32 33 34 36 39 43 45 46 48 48 51 52 53 54 54 53 52 51 50 50 49 49 48 47 46 46 44 42 42 40 40 39 38 38 38 38 39 38 39 39 39 39 40
33 34 36 36 37 41 43 46 48 48 49 50 52 53 54 54 53 51 50 49 49 49 48 47 47 46 44 43 42 40 39 39 38 38 38 38 38 38 38 38 38 39 40
33 34 36 38 39 40 42 44 47 48 49 50 51 51 52 53 53 52 51 50 49 48 47 47 46 45 43 42 41 40 39 39 38 38 37 37 37 37 37 38 38 39 39
32 34 35 37 39 41 42 44 45 47 49 49 50 50 52 53 52 52 51 50 49 48 47 46 45 44 43 41 41 40 40 38 38 38 37 37 36 36 36 37 38 38 39
31 33 35 36 38 41 43 44 44 45 47 48 49 50 52 52 52 52 52 51 51 49 47 45 44 44 43 42 41 41 40 39 39 38 37 36 35 35 36 37 38 37 38
30 33 35 35 38 40 43 43 43 44 45 47 49 49 50 51 52 51 50 50 50 49 48 46 45 44 43 43 42 41 40 40 39 38 36 35 35 35 36 36 36 37 38
30 32 35 36 37 40 42 43 42 44 45 46 48 49 50 49 49 49 49 48 47 48 48 47 45 43 42 42 42 41 40 39 38 36 34 34 34 34 34 34 35 37 38
31 32 34 36 37 39 42 43 43 44 44 45 46 47 47 48 49 48 47 47 47 47 47 46 45 43 40 40 40 39 38 37 35 34 34 33 33 33 33 34 35 36 36
31 31 33 34 35 37 40 42 43 45 44 45 46 47 47 47 47 47 46 46 45 44 45 45 44 43 41 39 39 38 37 35 33 32 32 32 32 32 32 33 33 34 35
30 31 33 33 34 36 39 40 42 43 44 45 46 46 48 47 47 47 45 44 43 42 43 42 42 42 41 40 38 36 35 34 32 31 31 31 30 30 31 32 32 33 34
30 31 32 33 34 36 38 40 40 42 43 44 44 45 46 47 47 46 45 44 44 43 42 41 40 40 40 39 38 35 35 33 32 31 30 29 28 29 29 30 31 32 33

GEFSMW_500_meanwind_150.txt.gz
Wind_Speed
40 41 42 45 46 48 50 53 54 55 56 57 59 59 59 57 55 54 53 50 49 48 47 45 43 42 40 38 37 36 35 34 33 32 32 31 31 31 31 31 32 32 32
36 38 40 41 43 45 47 50 53 53 55 57 58 59 58 58 56 54 53 51 49 48 47 46 44 43 41 39 38 37 36 34 33 33 33 32 32 32 32 32 32 33 33
34 34 36 38 41 43 44 48 51 52 54 56 57 59 58 57 56 54 53 52 49 48 47 46 45 44 42 40 39 38 36 36 35 34 34 33 33 33 33 33 33 34 34
31 33 35 35 38 41 42 46 50 52 53 55 57 58 59 57 55 53 53 52 51 49 48 47 46 45 43 42 40 39 38 37 36 36 35 35 34 34 34 34 34 34 35
28 31 33 33 36 39 40 44 47 50 53 54 56 57 58 56 54 54 54 52 51 50 49 48 47 46 45 43 42 40 39 38 37 36 36 36 35 35 35 35 35 35 36
26 29 31 33 34 38 39 42 45 48 51 53 55 56 56 57 55 54 53 51 51 49 47 47 46 46 45 44 42 41 40 39 38 37 37 37 36 36 36 36 36 37 37
25 28 31 31 33 36 38 41 45 47 50 52 54 55 55 56 54 54 53 52 49 48 48 47 47 46 45 44 43 42 40 39 38 38 37 37 37 37 37 37 37 37 38
23 26 28 30 32 34 37 40 43 46 49 52 53 54 53 55 54 53 52 51 49 47 47 46 47 46 45 44 43 42 41 40 39 38 38 38 37 37 37 37 37 38 38
23 25 27 30 31 32 34 38 41 43 47 50 53 54 53 54 53 53 52 50 48 46 46 46 47 46 45 44 43 42 41 40 39 39 38 38 37 37 37 37 38 39 39
23 24 25 27 30 32 34 36 39 42 45 48 50 52 52 52 52 52 51 50 47 46 46 46 46 46 45 44 43 42 41 40 39 38 38 37 37 37 38 38 39 39 40
24 25 26 27 29 31 33 35 39 41 43 47 49 50 51 52 51 51 51 51 49 46 46 45 46 45 45 44 43 42 41 40 39 38 37 37 37 37 38 38 38 39 40
25 25 26 27 28 31 34 35 38 40 42 45 48 50 50 52 51 51 51 51 49 47 47 46 45 44 44 44 43 42 41 40 39 37 37 37 37 37 37 37 38 39 39
26 26 26 28 29 31 34 35 37 39 42 43 47 50 50 50 50 51 51 52 50 48 48 47 45 43 43 43 42 41 41 40 39 38 37 37 36 36 36 37 38 38 39
26 27 27 29 31 32 34 35 37 39 41 43 45 48 50 51 51 51 52 52 51 49 48 46 45 44 42 41 41 40 40 39 39 38 37 36 36 36 37 37 37 38 38
26 27 28 29 32 33 34 36 37 39 41 42 43 46 48 50 50 50 51 52 51 49 47 46 46 44 43 41 41 40 40 39 38 37 37 36 36 36 36 36 37 38 38
26 27 28 29 31 33 35 37 37 39 40 42 44 45 47 49 49 49 49 49 50 49 48 47 46 45 43 42 41 40 40 40 39 38 37 36 35 35 35 36 37 38 38
27 27 27 28 30 33 35 36 37 38 39 41 43 45 47 48 49 49 49 48 48 48 49 46 46 45 44 42 41 41 40 39 38 37 37 35 34 35 35 36 37 37 38
28 28 28 29 30 32 34 35 36 37 38 39 41 42 44 46 47 49 50 49 48 48 48 48 47 45 43 43 41 40 39 38 38 37 37 35 34 35 36 36 37 38 39
29 28 28 28 29 32 33 34 36 37 37 38 40 41 41 43 45 46 48 47 47 47 47 48 48 46 45 43 41 40 39 38 37 37 36 34 34 35 36 36 37 37 38
29 29 28 28 28 31 32 33 35 36 37 38 39 39 39 41 42 43 45 46 46 46 46 46 46 46 45 44 42 41 40 38 37 36 35 35 35 35 35 35 35 35 37
29 29 29 29 29 30 32 33 33 35 37 38 38 39 39 40 41 41 43 44 45 45 45 45 44 44 44 43 42 41 40 38 36 35 34 34 34 34 33 33 33 34 36
29 30 30 30 32 33 33 32 34 35 36 38 38 39 40 40 40 41 41 42 43 44 45 45 44 42 42 42 41 41 39 37 36 35 34 34 33 34 34 33 33 35 36
29 29 30 31 31 33 33 32 34 34 36 37 37 39 40 40 41 40 40 40 41 42 42 43 42 41 40 40 40 40 39 38 37 36 34 34 34 34 34 33 34 35 35
28 27 28 29 30 31 32 33 34 35 35 36 37 38 39 40 40 41 41 40 40 41 40 40 40 41 41 40 39 38 38 38 37 36 35 34 33 34 33 33 34 35 35
26 26 26 26 27 28 30 32 34 36 36 37 37 38 39 40 41 41 41 40 40 40 39 39 38 39 39 38 38 36 35 36 36 35 35 35 35 34 33 33 34 34 34
26 26 26 26 27 28 29 30 32 35 36 36 37 37 38 38 39 40 40 40 41 40 40 39 38 38 37 37 37 36 36 35 34 35 36 35 34 33 33 33 33 32 31